South Haven, MI

6:53 AM EDT on June 27, 2017 (GMT -0400)
South Haven

Weather History for KLWA - September, 2013

Change the Weather History Date:

Tuesday, September 10, 2013

  Actual Average (KBEH) Record (KBEH)
Temperature  
Mean Temperature 83 °F -  
Max Temperature 91 °F 75 °F 93 °F (1983)
Min Temperature 75 °F 54 °F 39 °F (1988)
Cooling Degree Days 18    
Growing Degree Days 33 (Base 50)    
Moisture  
Dew Point 65 °F    
Average Humidity 54    
Maximum Humidity 69    
Minimum Humidity 34    
Precipitation  
Precipitation 0.00 in - - ()
Sea Level Pressure  
Sea Level Pressure 29.97 in    
Wind  
Wind Speed 10 mph (SW)    
Max Wind Speed 15 mph    
Max Gust Speed 25 mph    
Visibility 10 miles    
Events      
Averages and records for this station are not official NWS values.
T = Trace of Precipitation, MM = Missing Value Source: NWS Daily Summary

Daily Weather History Graph

Daily Weather History Graph

Search for Another Location

Airport or City:

Trip Planner

Search our weather history database for the weather conditions in past years. The results will help you decide how hot, cold, wet, or windy it might be!

Date:

Astronomy

Sep. 10, 2013 Rise Set
Actual Time 7:19 AM EDT 8:03 PM EDT
Civil Twilight 6:51 AM EDT 8:31 PM EDT
Nautical Twilight 6:17 AM EDT 9:04 PM EDT
Astronomical Twilight 5:43 AM EDT 9:39 PM EDT
Moon 12:52 PM EDT (9/10) 10:58 PM EDT (9/10)
Length of Visible Light 13h 39m
Length of Day
12h 43m
Waxing Crescent, 28% of the Moon is Illuminated
Sep 10
Waxing Crescent
Sep 12
First Quarter
Sep 19
Full
Sep 26
Last Quarter
Oct 4
New

Hourly Weather History & Observations

Time (EDT) Temp. Heat Index Dew Point Humidity Pressure Visibility Wind Dir Wind Speed Gust Speed Precip Events Conditions
12:15 AM 85.1 °F 89.4 °F 70.0 °F 60% 29.88 in 10.0 mi SW 9.2 mph 19.6 mph N/A   Clear
12:35 AM 85.1 °F 89.4 °F 69.8 °F 60% 29.88 in 10.0 mi SW 10.4 mph 23.0 mph N/A   Clear
12:55 AM 84.4 °F 88.5 °F 69.8 °F 61% 29.88 in 10.0 mi SW 15.0 mph 21.9 mph N/A   Clear
1:15 AM 84.6 °F 88.8 °F 69.8 °F 61% 29.88 in 10.0 mi SW 11.5 mph 21.9 mph N/A   Clear
1:35 AM 83.7 °F 87.7 °F 70.0 °F 63% 29.88 in 10.0 mi SW 13.8 mph 19.6 mph N/A   Clear
1:55 AM 83.8 °F 88.1 °F 69.8 °F 63% 29.88 in 10.0 mi SW 15.0 mph 20.7 mph N/A   Clear
2:14 AM 83.7 °F 87.7 °F 69.8 °F 63% 29.88 in 10.0 mi SW 12.7 mph 20.7 mph N/A   Clear
2:35 AM 83.7 °F 87.5 °F 69.6 °F 62% 29.89 in 10.0 mi SW 12.7 mph 25.3 mph N/A   Clear
2:55 AM 83.3 °F 87.1 °F 69.6 °F 63% 29.89 in 10.0 mi SW 13.8 mph 24.2 mph N/A   Clear
3:14 AM 82.8 °F 86.4 °F 69.3 °F 64% 29.90 in 10.0 mi SW 13.8 mph 21.9 mph N/A   Clear
3:35 AM 82.4 °F 85.8 °F 69.3 °F 64% 29.90 in 10.0 mi SW 13.8 mph 25.3 mph N/A   Clear
3:55 AM 82.0 °F 85.5 °F 69.4 °F 65% 29.91 in 10.0 mi SW 11.5 mph 21.9 mph N/A   Clear
4:15 AM 81.7 °F 85.1 °F 69.3 °F 66% 29.92 in 10.0 mi SW 13.8 mph - N/A   Clear
4:35 AM 81.7 °F 85.1 °F 69.3 °F 66% 29.92 in 10.0 mi SW 11.5 mph 18.4 mph N/A   Clear
4:54 AM 81.3 °F 84.6 °F 69.3 °F 67% 29.92 in 10.0 mi SW 10.4 mph 19.6 mph N/A   Clear
5:15 AM 81.1 °F 84.2 °F 68.9 °F 66% 29.93 in 10.0 mi SW 11.5 mph 19.6 mph N/A   Clear
5:35 AM 81.0 °F 84.1 °F 68.9 °F 67% 29.93 in 10.0 mi SW 8.1 mph 17.3 mph N/A   Clear
5:54 AM 80.8 °F 83.8 °F 68.7 °F 67% 29.93 in 10.0 mi SW 8.1 mph 17.3 mph N/A   Clear
6:15 AM 80.6 °F 83.4 °F 68.2 °F 66% 29.94 in 10.0 mi SW 8.1 mph 17.3 mph N/A   Clear
6:35 AM 80.1 °F 82.4 °F 67.5 °F 65% 29.94 in 10.0 mi SW 11.5 mph - N/A   Clear
6:54 AM 80.1 °F 82.4 °F 67.3 °F 65% 29.95 in 10.0 mi SW 9.2 mph - N/A   Clear
7:15 AM 80.1 °F 82.3 °F 67.1 °F 64% 29.95 in 10.0 mi SW 11.5 mph 17.3 mph N/A   Clear
7:35 AM 80.1 °F 82.2 °F 66.4 °F 63% 29.96 in 10.0 mi SW 9.2 mph 17.3 mph N/A   Clear
7:55 AM 79.7 °F - 66.6 °F 64% 29.97 in 10.0 mi SW 9.2 mph - N/A   Clear
8:15 AM 79.7 °F - 66.4 °F 64% 29.97 in 10.0 mi SW 10.4 mph - N/A   Clear
8:35 AM 80.1 °F 82.1 °F 66.2 °F 62% 29.97 in 10.0 mi SW 8.1 mph - N/A   Clear
8:55 AM 80.6 °F 82.7 °F 65.8 °F 61% 29.98 in 10.0 mi SW 10.4 mph 16.1 mph N/A   Clear
9:15 AM 81.1 °F 83.1 °F 65.5 °F 59% 29.98 in 10.0 mi SW 10.4 mph 16.1 mph N/A   Clear
9:35 AM 81.5 °F 83.4 °F 65.3 °F 58% 29.99 in 10.0 mi SW 10.4 mph - N/A   Clear
9:55 AM 82.4 °F 84.2 °F 65.3 °F 56% 29.99 in 10.0 mi WSW 12.7 mph 16.1 mph N/A   Clear
10:15 AM 82.6 °F 84.3 °F 64.8 °F 55% 30.00 in 10.0 mi SW 9.2 mph - N/A   Clear
10:35 AM 82.8 °F 84.3 °F 64.8 °F 54% 30.00 in 10.0 mi WSW 11.5 mph 16.1 mph N/A   Clear
10:55 AM 82.8 °F 84.2 °F 64.2 °F 53% 30.00 in 10.0 mi WSW 12.7 mph 19.6 mph N/A   Clear
11:15 AM 83.3 °F 84.4 °F 63.7 °F 51% 30.01 in 10.0 mi WSW 13.8 mph 23.0 mph N/A   Clear
11:35 AM 83.8 °F 84.9 °F 63.5 °F 50% 30.01 in 10.0 mi WSW 12.7 mph 18.4 mph N/A   Clear
11:55 AM 84.0 °F 84.9 °F 62.8 °F 49% 30.00 in 10.0 mi WSW 13.8 mph 19.6 mph N/A   Clear
12:15 PM 84.7 °F 85.4 °F 62.6 °F 47% 30.00 in 10.0 mi WSW 11.5 mph 20.7 mph N/A   Clear
12:35 PM 85.6 °F 86.3 °F 62.8 °F 46% 30.01 in 10.0 mi WSW 10.4 mph 17.3 mph N/A   Clear
12:55 PM 85.8 °F 86.6 °F 62.6 °F 46% 30.01 in 10.0 mi WSW 11.5 mph 19.6 mph N/A   Clear
1:15 PM 86.4 °F 87.0 °F 62.4 °F 45% 30.01 in 10.0 mi WSW 12.7 mph 19.6 mph N/A   Clear
1:35 PM 86.9 °F 87.2 °F 62.1 °F 43% 30.01 in 10.0 mi WSW 13.8 mph 19.6 mph N/A   Clear
1:55 PM 88.2 °F 88.4 °F 62.1 °F 41% 30.00 in 10.0 mi SW 11.5 mph 17.3 mph N/A   Clear
2:14 PM 88.7 °F 88.8 °F 61.5 °F 40% 30.00 in 10.0 mi WSW 9.2 mph 17.3 mph N/A   Clear
2:35 PM 89.2 °F 89.3 °F 61.3 °F 39% 30.00 in 10.0 mi SW 11.5 mph - N/A   Clear
2:55 PM 89.8 °F 89.4 °F 60.4 °F 37% 30.00 in 10.0 mi SW 13.8 mph 17.3 mph N/A   Clear
3:14 PM 90.5 °F 90.4 °F 60.8 °F 37% 30.00 in 10.0 mi SW 12.7 mph 18.4 mph N/A   Clear
3:35 PM 90.5 °F 90.1 °F 60.3 °F 36% 29.99 in 10.0 mi SW 13.8 mph 21.9 mph N/A   Clear
3:55 PM 90.9 °F 90.3 °F 60.1 °F 35% 29.99 in 10.0 mi SW 13.8 mph 19.6 mph N/A   Clear
4:14 PM 91.4 °F 90.7 °F 59.7 °F 34% 29.99 in 10.0 mi SW 11.5 mph 20.7 mph N/A   Clear
4:35 PM 91.4 °F 90.7 °F 59.4 °F 34% 29.99 in 10.0 mi WSW 11.5 mph 19.6 mph N/A   Clear
4:55 PM 91.4 °F 90.7 °F 59.7 °F 34% 29.99 in 10.0 mi SW 6.9 mph - N/A   Clear
5:14 PM 91.0 °F 90.2 °F 59.0 °F 34% 29.98 in 10.0 mi SW 9.2 mph - N/A   Clear
5:35 PM 90.5 °F 89.5 °F 58.5 °F 34% 29.98 in 10.0 mi SW 10.4 mph 16.1 mph N/A   Clear
5:55 PM 90.0 °F 89.7 °F 60.1 °F 37% 29.98 in 10.0 mi WSW 3.5 mph - N/A   Clear
6:14 PM 89.4 °F 88.7 °F 59.4 °F 36% 29.98 in 10.0 mi WSW 8.1 mph - N/A   Clear
6:35 PM 88.7 °F 88.0 °F 59.4 °F 37% 29.98 in 10.0 mi WSW 6.9 mph - N/A   Clear
6:54 PM 88.0 °F 87.9 °F 61.2 °F 40% 29.98 in 10.0 mi SW 4.6 mph - N/A   Clear
7:15 PM 86.9 °F 87.0 °F 61.5 °F 42% 29.98 in 10.0 mi SW 4.6 mph - N/A   Clear
7:35 PM 85.5 °F 85.7 °F 61.3 °F 44% 29.98 in 10.0 mi SSW 4.6 mph - N/A   Clear
7:54 PM 83.1 °F 84.0 °F 62.8 °F 50% 29.98 in 10.0 mi South 3.5 mph - N/A   Clear
8:15 PM 81.7 °F 82.9 °F 63.0 °F 53% 29.99 in 10.0 mi South 3.5 mph - N/A   Clear
8:35 PM 80.6 °F 82.0 °F 63.5 °F 56% 29.99 in 10.0 mi South 4.6 mph - N/A   Clear
8:55 PM 79.3 °F - 64.4 °F 60% 30.00 in 10.0 mi South 3.5 mph - N/A   Clear
9:15 PM 78.4 °F - 63.9 °F 61% 30.01 in 10.0 mi Calm Calm - N/A   Clear
9:35 PM 78.3 °F - 64.2 °F 62% 30.01 in 10.0 mi Calm Calm - N/A   Clear
9:55 PM 78.6 °F - 63.9 °F 60% 30.01 in 10.0 mi SSW 3.5 mph - N/A   Clear
10:15 PM 79.7 °F - 63.7 °F 58% 30.01 in 10.0 mi SSW 4.6 mph - N/A   Clear
10:35 PM 80.8 °F 82.2 °F 63.9 °F 56% 30.01 in 10.0 mi SW 5.8 mph - N/A   Clear
10:55 PM 79.5 °F - 64.4 °F 60% 30.00 in 10.0 mi South 3.5 mph - N/A   Clear
11:15 PM 75.9 °F - 65.1 °F 69% 30.01 in 10.0 mi South 4.6 mph - N/A   Clear
11:35 PM 77.2 °F - 64.4 °F 65% 30.00 in 10.0 mi SSW 3.5 mph - N/A   Clear
11:55 PM 77.9 °F - 64.4 °F 63% 30.00 in 10.0 mi SSW 4.6 mph - N/A   Clear